Weather History for Everett-Stewart Regional Airp, TN

Change the Weather History Date:

Tuesday, May 6, 2014

  Actual Average (KDYR) Record (KDYR)
Temperature  
Mean Temperature 72 °F -  
Max Temperature 84 °F 74 °F 91 °F (2012)
Min Temperature 60 °F 56 °F 46 °F (2005)
Cooling Degree Days 7    
Growing Degree Days 22 (Base 50)    
Moisture  
Dew Point 54 °F    
Average Humidity 55    
Maximum Humidity 77    
Minimum Humidity 28    
Precipitation  
Precipitation 0.00 in - - ()
Sea Level Pressure  
Sea Level Pressure 29.85 in    
Wind  
Wind Speed 7 mph (SSW)    
Max Wind Speed 15 mph    
Max Gust Speed -    
Visibility 10 miles    
Events      
Averages and records for this station are not official NWS values.
T = Trace of Precipitation, MM = Missing Value Source: NWS Daily Summary

Daily Weather History Graph

Daily Weather History Graph

Search for Another Location

Airport:

Trip Planner

Search our weather history database for the weather conditions in past years. The results will help you decide how hot, cold, wet, or windy it might be!

Date:

Astronomy

May. 06, 2014 Rise Set
Actual Time 5:57 AM CDT 7:48 PM CDT
Civil Twilight 5:29 AM CDT 8:16 PM CDT
Nautical Twilight 4:55 AM CDT 8:50 PM CDT
Astronomical Twilight 4:19 AM CDT 9:26 PM CDT
Moon 12:11 PM CDT (5/6) 1:08 AM CDT (5/6)
Length of Visible Light 14h 46m
Length of Day
13h 50m
Waxing Crescent, 46% of the Moon is Illuminated
May 6
Waxing Crescent
May 6
First Quarter
May 14
Full
May 21
Last Quarter
May 28
New

Hourly Weather History & Observations

Time (CDT) Temp. Heat Index Dew Point Humidity Pressure Visibility Wind Dir Wind Speed Gust Speed Precip Events Conditions
12:35 AM 64.4 °F - 50.0 °F 59% 29.84 in 10.0 mi SSW 4.6 mph - N/A   Clear
12:55 AM 62.6 °F - 51.8 °F 68% 29.84 in 10.0 mi SSW 5.8 mph - N/A   Clear
1:15 AM 62.6 °F - 51.8 °F 68% 29.84 in 10.0 mi South 4.6 mph - N/A   Clear
1:35 AM 60.8 °F - 50.0 °F 68% 29.84 in 10.0 mi South 4.6 mph - N/A   Clear
1:55 AM 60.8 °F - 51.8 °F 72% 29.83 in 10.0 mi South 4.6 mph - N/A   Clear
2:15 AM 60.8 °F - 51.8 °F 72% 29.83 in 10.0 mi South 4.6 mph - N/A   Clear
2:35 AM 60.8 °F - 51.8 °F 72% 29.82 in 10.0 mi South 4.6 mph - N/A   Clear
2:55 AM 60.8 °F - 51.8 °F 72% 29.82 in 10.0 mi South 4.6 mph - N/A   Clear
6:55 AM 60.8 °F - 53.6 °F 77% 29.87 in 10.0 mi South 4.6 mph - N/A   Clear
7:15 AM 64.4 °F - 55.4 °F 73% 29.88 in 10.0 mi South 5.8 mph - N/A   Clear
7:35 AM 64.4 °F - 55.4 °F 73% 29.89 in 10.0 mi South 6.9 mph - N/A   Clear
7:55 AM 66.2 °F - 57.2 °F 73% 29.89 in 9.0 mi SSW 8.1 mph - N/A   Clear
8:15 AM 68.0 °F - 57.2 °F 68% 29.89 in 10.0 mi SSW 9.2 mph - N/A   Clear
9:15 AM 71.6 °F - 59.0 °F 64% 29.89 in 10.0 mi SSW 9.2 mph - N/A   Clear
9:35 AM 73.4 °F - 59.0 °F 61% 29.89 in 10.0 mi SW 10.4 mph - N/A   Clear
9:55 AM 73.4 °F - 60.8 °F 65% 29.88 in 10.0 mi South 9.2 mph - N/A   Clear
10:15 AM 73.4 °F - 60.8 °F 65% 29.89 in 10.0 mi SSW 8.1 mph - N/A   Clear
10:35 AM 75.2 °F - 60.8 °F 61% 29.89 in 10.0 mi South 8.1 mph - N/A   Clear
10:55 AM 75.2 °F - 60.8 °F 61% 29.88 in 10.0 mi SSW 8.1 mph - N/A   Clear
11:15 AM 77.0 °F - 60.8 °F 57% 29.88 in 10.0 mi South 8.1 mph - N/A   Clear
11:35 AM 77.0 °F - 60.8 °F 57% 29.88 in 10.0 mi SSW 6.9 mph - N/A   Clear
11:55 AM 78.8 °F - 62.6 °F 57% 29.87 in 10.0 mi South 9.2 mph - N/A   Clear
12:15 PM 78.8 °F - 60.8 °F 54% 29.87 in 10.0 mi SSW 9.2 mph - N/A   Clear
12:35 PM 78.8 °F - 60.8 °F 54% 29.87 in 10.0 mi SSW 8.1 mph - N/A   Clear
12:55 PM 78.8 °F - 60.8 °F 54% 29.86 in 10.0 mi SSW 9.2 mph - N/A   Clear
1:15 PM 80.6 °F 81.5 °F 60.8 °F 51% 29.85 in 10.0 mi SSW 10.4 mph - N/A   Clear
1:35 PM 80.6 °F 81.5 °F 60.8 °F 51% 29.85 in 10.0 mi South 9.2 mph - N/A   Clear
1:55 PM 80.6 °F 80.5 °F 55.4 °F 42% 29.85 in 10.0 mi SSW 10.4 mph - N/A   Clear
2:15 PM 82.4 °F 82.0 °F 57.2 °F 42% 29.84 in 10.0 mi SSW 8.1 mph - N/A   Clear
2:35 PM 82.4 °F 81.4 °F 53.6 °F 37% 29.84 in 10.0 mi SSW 12.7 mph - N/A   Clear
2:55 PM 82.4 °F 81.4 °F 53.6 °F 37% 29.84 in 10.0 mi SSW 10.4 mph - N/A   Clear
3:15 PM 84.2 °F - 51.8 °F 33% 29.83 in 10.0 mi SSW 15.0 mph - N/A   Clear
3:35 PM 84.2 °F - 51.8 °F 33% 29.82 in 10.0 mi South 12.7 mph - N/A   Clear
3:55 PM 84.2 °F - 51.8 °F 33% 29.81 in 10.0 mi SSW 12.7 mph - N/A   Clear
4:15 PM 84.2 °F - 51.8 °F 33% 29.81 in 10.0 mi SSW 12.7 mph - N/A   Clear
4:35 PM 84.2 °F - 48.2 °F 29% 29.81 in 10.0 mi SSW 12.7 mph - N/A   Clear
4:55 PM 84.2 °F - 48.2 °F 29% 29.81 in 10.0 mi SSW 12.7 mph - N/A   Clear
5:15 PM 84.2 °F - 48.2 °F 29% 29.81 in 10.0 mi South 10.4 mph - N/A   Clear
5:35 PM 84.2 °F - 48.2 °F 29% 29.81 in 10.0 mi South 13.8 mph - N/A   Clear
5:55 PM 82.4 °F - 48.2 °F 30% 29.81 in 10.0 mi SSW 11.5 mph - N/A   Clear
6:15 PM 82.4 °F - 46.4 °F 28% 29.81 in 10.0 mi SSW 9.2 mph - N/A   Clear
6:35 PM 82.4 °F - 48.2 °F 30% 29.81 in 10.0 mi SSW 9.2 mph - N/A   Clear
6:55 PM 80.6 °F - 50.0 °F 34% 29.81 in 10.0 mi SSW 6.9 mph - N/A   Clear
7:15 PM 75.2 °F - 51.8 °F 44% 29.81 in 10.0 mi South 8.1 mph - N/A   Clear
7:35 PM 75.2 °F - 51.8 °F 44% 29.82 in 10.0 mi South 6.9 mph - N/A   Clear
7:55 PM 71.6 °F - 53.6 °F 53% 29.82 in 10.0 mi South 5.8 mph - N/A   Clear
8:15 PM 69.8 °F - 53.6 °F 56% 29.82 in 10.0 mi South 5.8 mph - N/A   Clear
8:35 PM 69.8 °F - 53.6 °F 56% 29.83 in 10.0 mi South 5.8 mph - N/A   Clear
8:55 PM 66.2 °F - 53.6 °F 64% 29.83 in 10.0 mi Calm Calm - N/A   Clear
9:15 PM 66.2 °F - 53.6 °F 64% 29.84 in 10.0 mi South 5.8 mph - N/A   Clear
9:35 PM 66.2 °F - 53.6 °F 64% 29.84 in 10.0 mi South 6.9 mph - N/A   Clear
9:55 PM 62.6 °F - 53.6 °F 72% 29.85 in 10.0 mi SSE 8.1 mph - N/A   Clear
10:15 PM 64.4 °F - 53.6 °F 68% 29.85 in 10.0 mi South 8.1 mph - N/A   Clear
10:35 PM 62.6 °F - 53.6 °F 72% 29.86 in 10.0 mi South 6.9 mph - N/A   Clear
10:55 PM 62.6 °F - 53.6 °F 72% 29.86 in 10.0 mi South 8.1 mph - N/A   Clear
11:15 PM 60.8 °F - 53.6 °F 77% 29.86 in 10.0 mi South 8.1 mph - N/A   Clear
11:35 PM 60.8 °F - 53.6 °F 77% 29.87 in 10.0 mi South 8.1 mph - N/A   Clear
11:55 PM 60.8 °F - 53.6 °F 77% 29.87 in 10.0 mi South 6.9 mph - N/A   Clear